Regional Weather Roundup
Issued by NWS

Home | Current Version | Previous Version | Graphics & Text | Print | Product List | Glossary On
Versions: 1 2 3 4 5 6 7 8 9 10 11 12 13 14 15 16 17 18 19 20 21 22 23 24 25 26 27 28 29 30 31 32 33 34 35 36 37 38 39 40 41 42 43 44 45 46 47 48 49 50
000
ASUS43 KLMK 291002
RWRKY
KENTUCKY REGIONAL WEATHER ROUNDUP
NATIONAL WEATHER SERVICE LOUISVILLE KY
600 AM EDT WED JUL 29 2015

NOTE "FAIR" INDICATES FEW OR NO CLOUDS BELOW 12,000 FEET
WITH NO SIGNIFICANT WEATHER AND/OR OBSTRUCTIONS TO VISIBILITY.

KYZ001>023-026-027-061>063-070>075-291100-
WESTERN AND SOUTH CENTRAL KENTUCKY

CITY           SKY/WX    TMP DP  RH WIND       PRES   REMARKS
PADUCAH        CLEAR     75  71  87 CALM      29.97R
HENDERSON      PTCLDY    72  70  94 CALM      29.97R
OWENSBORO      NOT AVBL
HOPKINSVILLE   CLEAR     73  72  96 E2        29.99R
BOWLING GREEN  CLEAR     74  71  91 S3        30.00R
GLASGOW        NOT AVBL
$$

KYZ024-025-028>034-038-045-046-053-291100-
NORTH CENTRAL KENTUCKY

CITY           SKY/WX    TMP DP  RH WIND       PRES   REMARKS
LOUISVILLE/SDF MOCLDY    78  73  84 W5        29.98R
LOUISVILLE/LOU CLEAR     77  73  87 SW3       29.99R
FORT KNOX      CLEAR     71  70  96 SW2       29.98R FOG
$$

KYZ035>037-039>044-047>052-055>060-089>105-291100-
NORTHEAST KENTUCKY

CITY           SKY/WX    TMP DP  RH WIND       PRES   REMARKS
LEXINGTON      CLEAR     72  70  93 CALM      30.00R FOG
COVINGTON      PTCLDY    73  71  93 CALM      29.98S FOG
FRANKFORT      CLEAR     71  69  93 CALM      29.98R
$$

KYZ054-064>069-076>088-106>120-291100-
SOUTHEAST KENTUCKY

CITY           SKY/WX    TMP DP  RH WIND       PRES   REMARKS
JACKSON        FOG       72  71  97 CALM      30.01R VSB 3/4
LONDON         CLOUDY    72  68  87 SW3       30.02R
SOMERSET       NOT AVBL
MIDDLESBORO    NOT AVBL
MONTICELLO     MOSUNNY   70  70 100 CALM      30.04R FOG
$$



USA.gov is the U.S. government's official web portal to all federal, state and local government web resources and services.